Volver al catálogo

YUNYAO-1 59

ActivoMeteoSSO
NORAD 63295·PAYLOAD·🇨🇳 China
Este nombre de satélite aún no ha sido confirmado por fuentes oficiales.

Lanzado Mar 17, 2025 desde Jiuquan Satellite Launch Center

Loading…

Próximos Pases (próximas 24 horas)

TLE

ActualizadoSource: Space-Track

Época: Sep 14, 2026, 23:16 UTC

1 63295U 25055E   26257.96960611  .00007487  00000-0  41159-3 0  9991
2 63295  97.6626  38.1630 0023484 144.8190 215.4597 15.14146545 82595

Sigue YUNYAO-1 59 en tiempo real con AllMySat

Download on the App Store